Location: Allen Fire Department Station 4
(33.1073°N, 96.6988°W)
Time: 10:33:21
(UTC+00:00)

Cosmos 1939 Rocket - Pass Details

Date: 03 December 2021
Orbit: 531 x 583 km, 97.4° (Epoch: 24 January)

Event Time Altitude Azimuth Distance (km) Brightness Sun altitude
Rises 12:39:40 0° 8° (N) 2,717 6.2 -7.4°
Reaches altitude 10° 12:41:49 10° 6° (N) 1,812 5.3 -7.0°
Maximum altitude 12:45:42 68° 284° (WNW) 581 2.7 -6.2°
Drops below altitude 10° 12:49:31 10° 200° (SSW) 1,779 5.5 -5.5°
Sets 12:51:37 0° 198° (SSW) 2,662 6.4 -5.1°
